Flag for Germany Weather past 2 weeks in Zwickau, Saxony, Germany

Now
68 °F

Sunny.


Feels Like: 68 °F
Forecast: 53 / 85 °F
Wind: 9 mph from North

Location: Altenburg Nobitz

Current Time: Aug 2, 2015 at 10:38:54 AM

Latest Report: Aug 2, 2015 at 9:50 AM


Visibility: 10 mi

Pressure: 30.12 "Hg

Humidity: 60%

Dew point: 54 °F

Location of ZwickauLocation

Historic Weather in Zwickau — Graph

°F

Zwickau temperature yesterday

Maximum temperature yesterday: 79 °F (at 3:50 PM)
Minimum temperature yesterday: 63 °F (at 9:20 AM)
Average temperature yesterday: 73 °F

Past Weeks' High & Low Weather Summary

 TemperatureHumidityPressure
High84 °F (Jul 18, 11:50 AM)100% (Jul 19, 9:20 AM)30.09 "Hg (Jul 19, 9:20 AM)
Low63 °F (Aug 1, 9:20 AM)30% (Aug 1, 4:20 PM)29.74 "Hg (Jul 19, 4:50 PM)
Average77 °F63%29.92 "Hg
* Reported Jul 18 9:20 AM — Aug 2 9:20 AM, Zwickau, Weather by CustomWeather, © 2015

Note: Actual official high and low records may vary slightly from our data, if they occured in-between our weather recording intervals... More about our weather records

Advertising

Zwickau weather history for previous 24 hours

 ConditionsComfort  
Time TempWeatherWind HumidityBarometerVisibility
9:20 AM
Sun, Aug 2
66 °FPassing clouds.6 mph64%30.09 "HgN/A
6:50 PM
Sat, Aug 1
75 °FPassing clouds.3 mph41%29.95 "HgN/A
6:20 PM75 °FPassing clouds.3 mph41%29.95 "HgN/A
5:50 PM75 °FSunny.3 mph41%29.95 "Hg10 mi
5:20 PM77 °FPassing clouds.5 mph34%29.95 "HgN/A
4:50 PM79 °FPassing clouds.6 mph32%29.95 "HgN/A
4:20 PM79 °FPassing clouds.7 mph30%29.95 "HgN/A
3:50 PM79 °FPassing clouds.6 mph32%29.95 "HgN/A
3:20 PM77 °FPassing clouds.7 mph34%29.95 "HgN/A
2:50 PM77 °FPassing clouds.6 mph36%29.98 "HgN/A
2:20 PM75 °FPassing clouds.8 mph44%29.98 "HgN/A
1:50 PM73 °FSunny.9 mph50%29.98 "Hg10 mi
1:20 PM72 °FPassing clouds.8 mph53%29.98 "HgN/A
12:50 PM72 °FPassing clouds.8 mph57%29.98 "HgN/A
12:20 PM72 °FSunny.8 mph53%30.01 "Hg10 mi
11:50 AM72 °FPassing clouds.6 mph50%30.01 "HgN/A
11:20 AM70 °FPassing clouds.5 mph50%30.01 "HgN/A
10:50 AM68 °FPassing clouds.3 mph56%30.01 "HgN/A
10:20 AM66 °FPassing clouds.5 mph56%30.01 "HgN/A
Weather by CustomWeather, © 2015

See weather overviewHow to use our weather pages